Wind_Speed
25 25 25 24 24 24 24 24 24 25 25 24 21 19 20 25 26 24 23 24 24 25 27 27 27 28 29 29 30 31 32 33 34 35 36 37 38 40 41 43 44 45 45 46
25 25 26 26 26 26 26 26 26 26 26 26 22 18 22 25 26 26 26 27 27 27 29 30 30 31 31 32 33 35 35 37 37 39 40 40 42 43 44 46 47 48 49 49
24 24 25 25 26 26 26 28 27 27 26 25 24 16 20 24 26 28 28 28 29 30 32 33 33 34 34 35 37 38 39 40 41 42 43 43 45 45 47 48 50 51 52 52
20 21 22 23 25 26 25 27 28 28 27 25 25 21 20 23 25 28 29 30 31 33 34 36 36 37 37 39 41 41 42 43 44 46 46 47 48 49 50 52 53 54 55 55
18 19 20 21 23 25 26 27 28 28 27 26 26 24 22 24 24 27 30 31 32 34 36 38 39 40 41 42 43 44 46 47 48 49 50 51 51 52 53 54 55 56 57 58
18 19 20 21 23 25 27 28 29 29 29 27 26 26 24 25 26 27 29 31 33 34 36 38 40 42 43 45 46 48 49 50 51 52 53 53 54 55 56 57 57 58 59 59
18 20 21 22 24 26 28 30 32 33 31 30 29 28 25 29 31 31 32 32 33 34 36 37 39 41 43 46 47 49 50 51 53 54 54 55 57 58 59 59 60 60 60 60
20 21 22 24 26 27 29 31 33 36 36 34 31 30 27 30 33 34 36 36 36 36 36 37 38 40 42 44 46 48 50 52 53 54 55 56 57 59 60 61 61 61 61 61
24 23 24 26 27 29 31 31 34 37 39 39 37 34 30 31 35 38 40 40 39 38 38 39 40 41 43 44 46 47 49 51 52 54 55 56 58 59 60 60 61 62 63 63
27 27 26 27 29 30 33 34 37 39 42 45 44 40 35 36 38 40 42 42 41 41 41 42 43 43 44 45 46 47 49 50 52 53 55 55 57 58 60 61 62 62 63 63
31 31 30 30 31 33 34 36 38 40 43 46 49 47 40 41 42 46 48 47 45 44 44 44 44 44 45 46 47 48 49 51 52 53 54 55 57 59 60 61 61 62 63 64
34 35 35 34 34 36 37 38 40 42 45 47 50 50 42 43 47 51 51 50 49 48 48 47 47 47 47 48 48 49 49 50 51 52 52 53 55 56 57 59 60 62 63 64
36 37 38 38 37 38 39 40 41 43 45 47 49 49 45 47 50 52 53 52 52 51 50 50 49 49 49 48 48 48 48 49 49 50 51 52 54 55 56 58 60 61 62 63
37 37 37 38 37 39 40 39 40 42 44 46 47 48 45 48 52 52 52 52 52 51 51 50 50 49 49 48 47 47 47 47 48 49 50 52 53 55 57 58 59 61 62 62
37 36 36 36 36 38 39 39 39 41 43 46 46 47 47 49 50 50 50 50 50 50 51 51 50 49 48 48 47 47 46 47 47 48 50 52 53 55 56 57 58 59 59 60
34 35 35 34 34 36 37 36 37 39 41 43 44 44 46 48 48 49 49 50 50 50 50 49 48 48 48 47 47 46 47 47 48 49 50 51 53 53 54 55 55 56 57 57
30 32 33 32 33 34 33 33 35 37 38 41 43 44 46 46 46 47 48 48 49 48 48 48 48 48 48 47 47 47 48 48 49 49 49 50 50 51 52 53 54 54 54 54
30 32 34 35 35 35 34 35 37 38 39 40 41 43 44 45 46 47 47 48 48 47 48 49 49 49 48 47 47 47 47 47 47 46 46 47 48 49 50 51 52 52 52 52
30 32 35 36 37 37 36 38 40 41 40 42 43 43 44 45 46 47 47 48 48 48 49 49 49 48 47 47 47 47 46 45 44 44 45 46 47 49 50 51 52 52 52 52
31 33 35 37 40 41 41 43 44 45 46 46 46 47 47 48 48 47 48 48 49 49 49 49 48 47 47 48 47 46 45 45 45 45 46 47 47 49 50 51 52 53 53 53
34 36 37 40 43 44 44 46 47 49 50 50 50 50 51 51 52 51 51 51 51 50 50 49 49 48 48 48 47 46 46 46 46 47 47 48 50 50 51 52 52 53 53 54
38 40 41 43 46 46 48 49 51 52 53 53 53 54 54 54 55 55 54 54 53 53 52 51 50 49 49 49 48 47 47 48 48 49 50 51 52 52 52 53 53 54 55 55
42 43 45 47 49 49 51 53 54 56 57 57 57 57 58 58 58 58 58 57 56 55 53 52 51 50 50 50 50 49 50 50 50 51 53 53 54 54 54 55 55 55 55 56
46 46 48 51 50 52 54 56 57 59 59 60 60 61 62 61 61 61 60 60 59 57 55 54 53 52 52 52 52 52 52 52 53 53 54 55 55 55 56 56 55 55 55 55
49 51 53 55 55 56 58 59 60 61 62 63 63 64 64 64 64 63 62 61 60 58 57 56 55 54 53 53 53 53 53 54 54 54 55 56 57 56 56 56 55 55 55 55
51 55 59 59 60 62 62 63 65 65 65 66 66 66 66 66 65 64 62 61 60 58 57 57 56 55 54 54 54 54 55 55 55 56 56 57 57 56 56 56 55 55 56 55
Wind_Direction
269 275 279 283 286 289 292 293 295 297 298 300 301 301 288 282 282 280 276 273 271 269 269 271 271 271 273 274 275 276 277 279 281 283 285 288 290 292 295 296 297 298 299 300
272 276 280 283 286 288 291 292 294 296 298 300 301 306 295 287 284 282 278 275 273 270 270 270 269 270 271 273 274 275 277 278 281 282 284 287 289 291 293 295 295 297 298 299
276 279 282 285 287 289 292 294 295 297 298 301 300 304 297 291 287 284 281 278 275 273 272 271 271 271 272 273 273 275 277 279 281 282 284 286 288 290 292 293 294 296 297 298
281 283 286 288 290 292 295 295 297 299 300 304 304 306 300 295 292 288 284 281 278 275 274 274 274 273 273 273 275 277 278 279 281 283 285 286 289 291 291 292 294 295 296 297
287 288 291 293 294 296 297 297 298 300 301 304 305 307 305 297 293 290 287 284 281 279 277 276 276 276 276 276 277 278 279 280 282 284 286 288 289 290 291 292 294 294 294 295
293 294 295 296 297 298 299 299 299 300 301 302 304 306 307 301 297 293 290 288 286 285 284 283 282 281 281 281 281 281 282 283 284 285 287 288 289 290 291 292 292 293 293 294
293 296 298 299 298 299 300 301 302 302 302 303 305 307 310 306 302 299 295 293 292 291 290 289 288 287 286 286 286 286 286 286 287 288 289 289 289 290 291 291 291 292 292 293
294 296 297 298 298 299 300 301 302 303 304 304 305 306 310 307 303 300 297 295 294 295 296 295 294 292 291 290 289 288 288 288 288 289 289 289 289 290 290 290 291 291 292 292
297 297 298 299 300 300 301 301 302 302 302 303 303 303 307 305 302 299 297 297 298 300 299 298 296 295 293 292 291 290 289 289 289 289 288 289 289 289 290 289 289 290 290 291
297 297 298 298 299 299 300 302 302 303 304 304 303 304 310 308 303 299 297 298 299 298 297 296 296 295 294 293 292 291 290 289 289 288 288 288 288 288 288 289 290 290 291 292
295 297 298 298 299 299 299 300 300 301 301 303 303 304 312 308 303 299 298 299 299 298 296 296 295 294 294 293 292 292 291 290 289 289 288 288 287 287 288 289 289 290 291 291
295 297 298 298 299 299 299 300 301 301 302 302 302 305 310 305 300 299 300 301 301 301 299 298 297 297 296 295 294 293 292 290 290 289 289 289 289 289 289 289 290 290 291 292
295 296 298 299 299 299 299 300 301 300 300 301 301 305 307 303 300 300 302 302 303 302 301 301 300 300 299 298 296 295 293 292 291 291 291 291 291 292 292 292 292 292 292 292
293 295 297 299 301 300 300 301 301 300 301 300 302 305 305 302 300 302 303 303 303 302 302 301 301 300 299 299 298 297 296 294 294 293 293 293 293 294 293 293 292 292 292 292
294 296 297 298 299 299 300 303 303 302 302 302 305 304 305 302 303 304 304 303 303 302 302 302 301 300 300 299 299 298 298 297 296 295 294 293 293 293 294 294 293 293 293 292
293 296 297 299 299 299 302 304 303 301 302 302 304 304 303 303 304 305 305 305 304 304 304 303 302 301 300 299 299 298 298 298 297 296 295 294 294 294 293 294 294 294 294 294
295 297 299 302 302 304 306 308 305 304 304 304 304 305 305 305 306 306 306 306 306 305 304 302 300 300 299 298 298 298 298 298 297 296 296 296 296 295 295 296 296 295 295 295
298 299 300 304 304 305 310 308 307 307 308 307 307 307 307 307 307 307 307 307 306 306 304 303 301 300 299 298 298 298 299 298 297 296 296 297 297 297 297 297 297 296 296 296
295 297 299 302 303 305 308 307 307 307 308 307 308 309 309 309 309 309 308 308 308 306 306 304 303 301 299 298 298 298 298 298 297 297 298 298 298 298 298 298 297 296 296 297
294 296 298 300 302 305 308 306 306 306 305 307 308 309 309 309 308 308 308 308 306 306 305 304 303 301 300 299 299 298 297 297 297 298 300 300 301 300 299 299 298 297 297 297
295 296 298 299 300 303 303 303 303 304 306 306 307 308 308 308 307 307 307 306 305 305 303 302 302 301 301 300 299 298 297 297 298 299 300 301 301 302 301 300 299 298 298 298
295 296 297 298 299 301 300 300 301 302 303 304 304 305 305 305 305 305 304 304 303 302 301 301 300 300 300 300 299 298 298 298 298 299 300 300 301 301 301 301 300 299 298 299
293 295 296 296 297 298 297 297 298 299 300 301 301 302 302 302 303 302 302 301 301 300 300 299 299 299 299 299 298 297 298 298 299 300 300 300 301 301 301 301 300 299 299 299
292 294 294 293 293 293 293 294 295 296 297 298 298 299 299 299 300 300 299 300 300 299 299 298 297 297 297 297 297 297 297 298 299 300 301 301 301 301 301 301 301 300 300 299
295 294 291 290 291 291 292 293 293 294 295 295 296 296 297 297 298 298 298 298 298 298 298 297 297 297 297 297 297 298 298 299 299 300 301 301 301 301 301 301 302 301 301 301
294 291 290 291 291 291 292 292 293 293 294 294 294 295 295 296 296 297 297 297 297 297 297 297 297 297 297 298 298 298 299 300 300 301 301 301 301 301 301 301 302 302 302 302
Height
5862 5863 5861 5860 5858 5857 5855 5854 5852 5850 5847 5846 5845 5844 5840 5835 5833 5832 5831 5829 5828 5826 5824 5823 5822 5820 5818 5816 5814 5812 5810 5808 5805 5802 5799 5796 5793 5789 5785 5781 5776 5772 5768 5763
5859 5858 5856 5855 5853 5852 5850 5848 5847 5845 5843 5841 5841 5839 5833 5830 5827 5825 5824 5822 5820 5819 5817 5815 5814 5812 5811 5809 5806 5804 5801 5799 5796 5793 5790 5787 5783 5780 5776 5771 5766 5761 5757 5752
5853 5853 5851 5849 5848 5846 5845 5842 5841 5840 5838 5836 5835 5836 5829 5825 5821 5819 5817 5815 5813 5811 5809 5807 5806 5804 5802 5800 5797 5795 5792 5789 5786 5783 5780 5777 5773 5769 5765 5760 5755 5751 5746 5741
5848 5847 5846 5844 5842 5840 5839 5837 5835 5834 5832 5831 5829 5828 5826 5820 5815 5812 5810 5807 5805 5803 5801 5799 5797 5796 5793 5791 5788 5785 5782 5779 5776 5772 5769 5766 5762 5759 5754 5749 5745 5739 5734 5729
5843 5842 5841 5839 5837 5835 5834 5831 5830 5828 5826 5825 5823 5821 5820 5815 5811 5806 5802 5800 5797 5795 5793 5791 5788 5787 5784 5782 5779 5776 5772 5769 5765 5762 5758 5755 5751 5747 5742 5737 5733 5727 5721 5716
5839 5837 5836 5835 5833 5830 5828 5826 5824 5822 5821 5820 5818 5815 5813 5808 5804 5800 5796 5793 5790 5788 5786 5783 5780 5778 5775 5772 5769 5766 5762 5759 5755 5751 5747 5743 5739 5735 5730 5725 5720 5714 5708 5703
5835 5833 5831 5830 5828 5826 5823 5820 5817 5815 5814 5813 5811 5808 5807 5801 5796 5792 5789 5786 5783 5781 5778 5776 5773 5769 5766 5763 5759 5756 5752 5748 5744 5740 5736 5731 5726 5721 5716 5711 5706 5700 5694 5689
5831 5830 5827 5825 5823 5820 5817 5815 5812 5808 5805 5804 5803 5801 5801 5795 5789 5784 5780 5778 5776 5774 5771 5768 5764 5760 5756 5753 5749 5745 5741 5737 5732 5727 5723 5718 5713 5707 5702 5697 5691 5685 5680 5674
5824 5824 5823 5820 5817 5814 5811 5809 5805 5801 5797 5795 5794 5794 5794 5788 5781 5776 5771 5768 5767 5765 5761 5757 5753 5749 5745 5741 5737 5733 5728 5724 5719 5714 5709 5704 5698 5693 5688 5681 5675 5670 5664 5658
5818 5817 5817 5814 5812 5808 5805 5802 5798 5793 5788 5784 5782 5783 5785 5778 5772 5767 5762 5760 5758 5755 5751 5747 5742 5738 5733 5729 5725 5720 5715 5710 5705 5700 5694 5689 5684 5678 5672 5666 5661 5655 5648 5642
5811 5810 5809 5807 5805 5801 5799 5796 5791 5786 5782 5776 5770 5773 5774 5767 5760 5754 5751 5749 5746 5743 5740 5735 5731 5726 5722 5717 5712 5707 5702 5696 5691 5685 5680 5674 5669 5662 5656 5651 5645 5639 5633 5627
5803 5802 5800 5799 5797 5793 5790 5787 5783 5779 5773 5767 5761 5762 5763 5756 5748 5742 5738 5735 5732 5729 5725 5721 5717 5712 5708 5703 5698 5693 5687 5682 5676 5671 5665 5659 5653 5647 5641 5635 5629 5623 5617 5611
5795 5794 5791 5789 5790 5785 5780 5777 5773 5769 5764 5759 5752 5753 5750 5744 5735 5730 5726 5722 5718 5714 5710 5706 5701 5697 5692 5687 5682 5677 5672 5666 5661 5656 5650 5644 5638 5632 5626 5620 5613 5607 5601 5594
5787 5785 5783 5781 5778 5774 5770 5768 5764 5759 5754 5748 5744 5740 5740 5731 5723 5719 5715 5710 5705 5701 5696 5692 5687 5682 5677 5672 5667 5662 5656 5651 5646 5640 5635 5629 5623 5617 5611 5604 5598 5591 5585 5578
5777 5776 5774 5771 5769 5764 5761 5759 5755 5749 5744 5738 5735 5729 5725 5718 5712 5708 5703 5698 5693 5688 5683 5678 5673 5668 5663 5658 5653 5647 5642 5636 5631 5625 5620 5614 5608 5601 5595 5589 5582 5575 5569 5562
5769 5767 5764 5763 5760 5755 5752 5750 5745 5739 5734 5729 5724 5719 5714 5707 5702 5697 5691 5685 5680 5675 5670 5665 5659 5654 5648 5643 5638 5633 5627 5622 5616 5610 5604 5598 5592 5586 5580 5573 5566 5560 5553 5547
5761 5758 5755 5754 5750 5746 5744 5741 5735 5730 5725 5720 5714 5710 5703 5698 5692 5686 5680 5674 5668 5663 5657 5651 5646 5640 5635 5629 5624 5618 5613 5607 5601 5596 5590 5583 5577 5571 5564 5558 5551 5544 5538 5532
5753 5749 5745 5743 5741 5737 5737 5730 5725 5720 5716 5711 5705 5699 5693 5688 5682 5676 5669 5663 5657 5651 5645 5638 5632 5627 5621 5615 5610 5605 5599 5593 5587 5581 5575 5569 5562 5556 5550 5543 5536 5530 5523 5517
5745 5741 5737 5734 5730 5728 5727 5720 5714 5709 5706 5700 5695 5689 5684 5678 5672 5666 5658 5652 5645 5639 5632 5626 5619 5613 5608 5602 5597 5591 5586 5580 5574 5568 5562 5555 5548 5542 5535 5529 5522 5515 5509 5503
5737 5733 5730 5725 5719 5717 5716 5709 5703 5699 5695 5690 5684 5678 5673 5667 5661 5656 5648 5641 5634 5627 5621 5614 5607 5601 5595 5589 5583 5578 5572 5566 5561 5555 5548 5541 5534 5528 5521 5514 5507 5501 5495 5489
5727 5724 5721 5715 5709 5707 5704 5698 5692 5688 5684 5678 5672 5666 5661 5654 5648 5643 5636 5629 5622 5615 5608 5602 5595 5589 5582 5577 5571 5565 5559 5553 5548 5542 5535 5528 5521 5513 5507 5500 5493 5486 5480 5474
5717 5713 5710 5705 5700 5698 5691 5685 5680 5676 5670 5665 5660 5654 5648 5642 5635 5629 5623 5616 5609 5602 5596 5589 5583 5577 5570 5563 5558 5552 5546 5541 5534 5528 5521 5514 5507 5500 5492 5485 5478 5471 5465 5458
5706 5703 5699 5695 5692 5685 5678 5672 5667 5662 5657 5652 5646 5641 5634 5629 5623 5616 5610 5603 5596 5589 5583 5576 5570 5564 5557 5550 5544 5539 5533 5527 5521 5514 5507 5500 5493 5485 5478 5471 5464 5456 5449 5443
5694 5691 5686 5681 5679 5672 5665 5659 5654 5648 5643 5638 5632 5626 5620 5614 5608 5602 5595 5588 5582 5576 5569 5563 5556 5550 5544 5537 5530 5524 5518 5512 5506 5499 5492 5485 5478 5471 5463 5455 5448 5441 5434 5427
5681 5676 5670 5666 5663 5658 5653 5645 5640 5635 5629 5623 5617 5611 5604 5599 5593 5586 5580 5574 5567 5561 5555 5549 5542 5536 5530 5523 5516 5509 5504 5498 5491 5484 5477 5470 5463 5455 5448 5441 5433 5426 5419 5411
5667 5659 5653 5651 5647 5641 5638 5630 5624 5619 5613 5607 5601 5595 5588 5582 5576 5570 5564 5558 5552 5546 5540 5534 5528 5521 5515 5509 5502 5495 5489 5482 5476 5469 5462 5455 5447 5440 5433 5426 5419 5411 5404 5396